[[{"header":{"parameterUnit":"m.s-1","parameterCategory":1,"la1":30.2991,"la2":30.254,"lo1":-89.0895,"lo2":-89.0444,"dy":0.0017,"dx":0.0017,"nx":28,"ny":28,"refTime":"2024-04-28T21:00:00:Z","depth":0,"parameterNumber":2,"parameterNumberName":"U-component_of_WINDS"},"data":[0,0,0,0,0,0,0,0,0,0,0,0,0,0,0,0,0,0,0,0,0,0,0,0,0,0,0,0,0,0,0,0,0,0,0,0,0,0,0,0,0,0,0,0,0,0,0,0,0,0,0,0,0,0,0,0,0,0,-4.8327,-4.8328,0,-4.8437,-4.8438,-4.844,-4.8454,-4.8453,-4.8452,-4.8451,-4.8559,-4.8562,-4.8566,0,0,0,0,0,0,0,0,0,0,0,0,0,-4.8124,-4.8128,-4.8327,-4.8328,-4.833,-4.8437,-4.8439,-4.844,-4.8454,-4.8453,-4.8452,-4.8451,-4.8557,-4.8562,-4.8567,0,0,0,0,0,0,0,0,0,0,0,0,0,-4.8221,-4.8129,-4.8327,-4.835,-4.8353,-4.8437,-4.8439,-4.844,-4.8455,-4.8453,-4.8451,-4.845,-4.8556,-4.8561,-4.8567,-4.8634,0,0,-4.8585,-4.8587,0,0,0,0,0,0,0,0,-4.8215,-4.8228,-4.8345,-4.8349,-4.8352,-4.843,-4.8407,-4.8505,-4.8455,-4.8416,-4.8451,-4.8449,-4.8517,-4.8526,-4.855,-4.8639,-4.8643,-4.8585,-4.8589,-4.8591,-4.8593,0,0,0,0,0,0,0,-4.8209,-4.8224,-4.837,-4.8347,-4.8351,-4.8353,-4.8365,-4.8425,-4.8474,-4.8419,-4.842,-4.8434,-4.8518,-4.8544,-4.8552,-4.8645,-4.8585,-4.859,-4.8594,-4.8596,-4.8792,-4.8794,0,0,0,0,0,0,-4.8198,-4.8218,-4.8367,-4.8374,-4.8279,-4.8358,-4.8372,-4.8407,-4.8473,-4.8482,-4.8435,-4.8434,-4.8535,-4.8546,-4.8556,-4.8637,-4.8591,-4.8597,-4.86,-4.8791,-4.8793,-4.8795,0,0,0,0,0,0,-4.8194,-4.8212,-4.8363,-4.8296,-4.8316,-4.8363,-4.8403,-4.841,-4.8435,-4.8485,-4.8493,-4.8452,-4.8534,-4.8548,-4.8614,-4.8641,-4.8599,-4.8604,-4.8789,-4.8791,-4.8794,-4.8799,0,0,0,0,0,0,-4.8188,-4.821,-4.8237,-4.8297,-4.8319,-4.842,-4.8404,-4.8413,-4.8446,-4.8446,-4.8504,-4.8512,-4.8534,-4.8606,-4.862,-4.8648,-4.8609,-4.8786,-4.879,-4.8793,-4.8797,-4.8802,-4.8806,0,0,0,0,0,-4.8181,-4.8233,-4.8238,-4.8256,-4.8354,-4.8422,-4.8434,-4.8461,-4.8448,-4.8474,-4.8506,-4.851,-4.8636,-4.8612,-4.8629,-4.8658,-4.8785,-4.8789,-4.8793,-4.8795,-4.8801,-4.8806,0,0,0,0,0,0,-4.8173,-4.8241,-4.8248,-4.8321,-4.8366,-4.8424,-4.8458,-4.8466,-4.8514,-4.8512,-4.8541,-4.8554,-4.8618,-4.8646,-4.8618,-4.8726,-4.8709,-4.8716,-4.8705,-4.8711,-4.8716,-4.8706,-4.8614,0,0,0,0,0,-4.8181,-4.8231,-4.8288,-4.8347,-4.8369,-4.841,-4.8441,-4.8457,-4.8504,-4.8522,-4.8559,-4.8602,-4.8652,-4.8683,-4.8732,-4.8802,-4.8813,-4.883,-4.8835,-4.8838,-4.8843,-4.8881,-4.8888,-4.8808,-4.8808,-4.8808,0,0,-4.8195,-4.8239,-4.8269,-4.8347,-4.8383,-4.8433,-4.8426,-4.8479,-4.8516,-4.853,-4.8594,-4.8623,-4.8673,-4.8741,-4.8773,-4.8766,-4.8869,-4.8844,-4.8846,-4.8849,-4.8885,-4.8893,-4.89,-4.8811,-4.881,-4.881,0,0,-4.8247,-4.8286,-4.8339,-4.8376,-4.8432,-4.8459,-4.8472,-4.8529,-4.8549,-4.8615,-4.8626,-4.8669,-4.8755,-4.879,-4.8818,-4.8884,-4.8888,-4.8899,-4.8922,-4.8957,-4.8964,-4.8969,-4.899,-4.8998,-4.8905,-4.8905,-4.8905,0,-4.8257,-4.8335,-4.8365,-4.8418,-4.8451,-4.8468,-4.8521,-4.8555,-4.8623,-4.8644,-4.8636,-4.8743,-4.8778,-4.8854,-4.887,-4.8894,-4.8907,-4.8891,-4.8961,-4.8967,-4.8972,-4.8993,-4.9001,-4.8906,-4.8906,-4.8905,-4.8905,0,-4.8343,-4.8397,-4.8433,-4.8499,-4.8537,-4.859,-4.8626,-4.866,-4.8674,-4.8701,-4.8767,-4.8811,-4.8867,-4.8887,-4.8901,-4.8964,-4.8958,-4.8955,-4.8938,-4.898,-4.9,-4.9008,-4.8907,-4.8906,-4.8906,-4.8906,0,0,-4.8391,-4.8475,-4.8487,-4.8517,-4.858,-4.8621,-4.8674,-4.8731,-4.8759,-4.8806,-4.8849,-4.8921,-4.8919,-4.8952,-4.897,-4.9002,-4.9048,-4.8995,-4.8996,-4.9001,-4.9118,-4.9117,-4.9126,-4.9053,-4.9054,-4.9056,-4.9113,0,-4.8448,-4.8544,-4.8573,-4.8652,-4.8701,-4.8718,-4.8764,-4.8807,-4.8834,-4.8878,-4.8907,-4.8957,-4.8952,-4.8971,-4.9004,-4.9035,-4.9071,-4.9032,-4.909,-4.9092,-4.9074,-4.9137,-4.9136,-4.9188,-4.9121,-4.9122,-4.9123,0,-4.8526,-4.8576,-4.866,-4.8717,-4.8738,-4.8779,-4.8833,-4.8876,-4.8924,-4.8941,-4.8979,-4.8994,-4.9048,-4.9031,-4.9105,-4.9077,-4.9103,-4.9122,-4.9125,-4.9129,-4.9108,-4.9139,-4.9206,-4.9212,-4.9136,-4.9135,-4.9134,0,-4.8549,-4.8637,-4.8698,-4.8724,-4.8792,-4.882,-4.8849,-4.8896,-4.8928,-4.8976,-4.8996,-4.9049,-4.9077,-4.9117,-4.9145,-4.913,-4.9215,-4.9201,-4.9229,-4.9228,-4.9243,-4.9241,-4.9312,-4.9265,-4.9265,-4.9265,-4.9265,0,-4.8608,-4.8658,-4.8709,-4.8747,-4.8803,-4.8836,-4.8891,-4.8921,-4.8963,-4.9005,-4.9024,-4.9063,-4.9099,-4.9143,-4.9166,-4.9222,-4.9235,-4.9249,-4.9254,-4.9246,-4.9243,-4.9261,-4.9257,-4.9267,-4.9266,-4.9266,-4.9266,0,-4.8641,-4.8678,-4.8746,-4.8805,-4.8821,-4.886,-4.891,-4.8946,-4.8975,-4.9028,-4.9042,-4.9087,-4.9139,-4.9172,-4.9238,-4.9254,-4.9314,-4.9319,-4.9298,-4.93,-4.9325,-4.9321,-4.9406,-4.9418,-4.9366,-4.9366,-4.9367,0,-4.8674,-4.8714,-4.8778,-4.8808,-4.8838,-4.8887,-4.892,-4.8954,-4.8987,-4.9046,-4.9074,-4.9128,-4.9173,-4.9255,-4.9292,-4.9343,-4.9347,-4.9374,-4.9355,-4.9345,-4.9344,-4.9341,-4.9344,-4.9376,-4.9376,-4.9377,-4.9377,0,-4.8729,-4.8745,-4.8793,-4.8848,-4.8887,-4.8931,-4.8975,-4.8999,-4.904,-4.9076,-4.9131,-4.9166,-4.9234,-4.9286,-4.934,-4.9369,-4.9379,-4.9383,-4.9392,-4.9382,-4.9367,-4.9373,-4.9303,-4.938,-4.938,-4.938,-4.9379,-4.9379,-4.8762,-4.8797,-4.8847,-4.8899,-4.8937,-4.8977,-4.9014,-4.9048,-4.9094,-4.9153,-4.917,-4.9226,-4.9273,-4.9347,-4.9377,-4.942,-4.9416,-4.9429,-4.9432,-4.9434,-4.9433,-4.9363,-4.943,-4.943,-4.943,-4.943,-4.943,0,-4.8815,-4.8848,-4.8896,-4.8958,-4.8999,-4.9008,-4.9057,-4.9089,-4.9139,-4.9183,-4.9227,-4.9289,-4.934,-4.9381,-4.9434,-4.946,-4.9466,-4.9472,-4.9469,-4.9475,-4.9435,-4.9421,-4.9467,-4.9467,-4.9467,-4.9467,-4.9467,-4.9467,-4.8847,-4.8906,-4.8928,-4.9006,-4.9039,-4.9095,-4.9122,-4.9159,-4.9194,-4.9262,-4.9305,-4.9333,-4.9375,-4.9431,-4.9478,-4.9489,-4.9506,-4.9511,-4.9522,-4.9483,-4.9478,-4.9474,-4.9461,-4.9515,-4.9515,-4.9559,-4.9559,-4.9559]},{"header":{"parameterUnit":"m.s-1","parameterCategory":1,"la1":30.2991,"la2":30.254,"lo1":-89.0895,"lo2":-89.0444,"dy":0.0017,"dx":0.0017,"nx":28,"ny":28,"refTime":"2024-04-28T21:00:00:Z","depth":0,"parameterNumber":3,"parameterNumberName":"V-component_of_WINDS"},"data":[0,0,0,0,0,0,0,0,0,0,0,0,0,0,0,0,0,0,0,0,0,0,0,0,0,0,0,0,0,0,0,0,0,0,0,0,0,0,0,0,0,0,0,0,0,0,0,0,0,0,0,0,0,0,0,0,0,0,6.5898,6.5899,0,6.5956,6.5957,6.5957,6.5865,6.5861,6.5858,6.5855,6.591,6.5915,6.5919,0,0,0,0,0,0,0,0,0,0,0,0,0,6.5702,6.5706,6.5898,6.5899,6.5899,6.5956,6.5957,6.5957,6.5865,6.5861,6.5857,6.5854,6.5909,6.5914,6.5919,0,0,0,0,0,0,0,0,0,0,0,0,0,6.5776,6.5707,6.5898,6.586,6.5858,6.5956,6.5957,6.5958,6.5866,6.5861,6.5856,6.5852,6.5907,6.5913,6.592,6.6056,0,0,6.594,6.5943,0,0,0,0,0,0,0,0,6.5772,6.5783,6.5865,6.5863,6.586,6.5898,6.5908,6.5991,6.5867,6.5863,6.5855,6.585,6.591,6.5916,6.5937,6.6059,6.6061,6.5941,6.5945,6.5948,6.595,0,0,0,0,0,0,0,6.5767,6.578,6.5921,6.5866,6.5863,6.5839,6.5844,6.5923,6.5912,6.5863,6.5856,6.5864,6.5907,6.5931,6.5938,6.6062,6.5941,6.5947,6.5951,6.5953,6.6296,6.6301,0,0,0,0,0,0,6.5767,6.5777,6.5919,6.5922,6.5804,6.5846,6.5852,6.5891,6.5911,6.591,6.5868,6.586,6.5922,6.593,6.5939,6.6099,6.5948,6.5954,6.5958,6.6291,6.6297,6.6303,0,0,0,0,0,0,6.5763,6.5781,6.5916,6.5848,6.5863,6.5855,6.5899,6.5894,6.5918,6.5915,6.5912,6.5895,6.5918,6.593,6.6028,6.6099,6.5957,6.5963,6.6285,6.6293,6.63,6.642,0,0,0,0,0,0,6.5758,6.578,6.5833,6.585,6.5867,6.6006,6.5903,6.5899,6.593,6.5919,6.5939,6.5938,6.5916,6.6018,6.6034,6.6106,6.5968,6.6279,6.6289,6.6298,6.641,6.6431,6.6449,0,0,0,0,0,6.5751,6.5864,6.5836,6.5854,6.5934,6.601,6.602,6.5993,6.5936,6.5988,6.5987,6.5937,6.6089,6.6029,6.6046,6.6121,6.6274,6.6286,6.6297,6.6401,6.6427,6.6449,0,0,0,0,0,0,6.5854,6.5865,6.5835,6.5956,6.5983,6.5995,6.606,6.6022,6.6065,6.6053,6.6016,6.6021,6.6126,6.6133,6.6066,6.6253,6.6172,6.6187,6.6245,6.6269,6.6289,6.6284,6.5974,0,0,0,0,0,6.5891,6.5954,6.596,6.6066,6.6082,6.6069,6.6101,6.6078,6.6104,6.6114,6.612,6.6145,6.6198,6.6234,6.6283,6.641,6.6412,6.647,6.649,6.6506,6.652,6.6586,6.6611,6.6341,6.6341,6.634,0,0,6.5968,6.5982,6.6024,6.6088,6.6106,6.617,6.6079,6.6151,6.6198,6.6125,6.6218,6.6223,6.6248,6.6361,6.6411,6.637,6.6595,6.6521,6.6534,6.6538,6.66,6.6626,6.6648,6.6349,6.6347,6.6346,0,0,6.6141,6.6158,6.6248,6.6269,6.6298,6.6288,6.631,6.6327,6.6328,6.6421,6.6367,6.6421,6.6514,6.6534,6.6557,6.6737,6.6692,6.6753,6.6856,6.6921,6.6942,6.6961,6.7024,6.7047,6.6767,6.6767,6.6767,0,6.6232,6.6328,6.6299,6.6375,6.6404,6.6342,6.6432,6.6452,6.6496,6.6516,6.647,6.6585,6.6598,6.6714,6.6758,6.6778,6.68,6.6751,6.6942,6.696,6.6977,6.7036,6.706,6.6774,6.6774,6.6773,6.6772,0,6.6438,6.6506,6.6575,6.6619,6.6656,6.6738,6.672,6.676,6.6734,6.6729,6.6823,6.6837,6.6887,6.6912,6.6887,6.7025,6.6998,6.6948,6.6865,6.7011,6.7066,6.7088,6.6785,6.6782,6.678,6.6778,0,0,6.6677,6.6705,6.673,6.6749,6.6776,6.6827,6.6906,6.6956,6.699,6.7022,6.7086,6.7166,6.7119,6.7145,6.7121,6.7178,6.7318,6.712,6.712,6.7155,6.7468,6.7505,6.7532,6.7289,6.7293,6.7296,6.7466,0,6.6848,6.6986,6.6962,6.7095,6.7156,6.7098,6.7166,6.7189,6.7186,6.7236,6.7231,6.7288,6.7223,6.7238,6.7292,6.7289,6.738,6.7277,6.7346,6.7349,6.7341,6.7561,6.7601,6.776,6.7487,6.7491,6.7493,0,6.7067,6.7107,6.7247,6.7264,6.7288,6.735,6.7393,6.7443,6.7467,6.746,6.7489,6.7454,6.7531,6.7448,6.7551,6.7482,6.7509,6.7512,6.7517,6.7522,6.743,6.7571,6.7811,6.7834,6.7527,6.7524,6.7522,0,6.7226,6.7315,6.741,6.7428,6.745,6.7495,6.7506,6.7525,6.7557,6.7594,6.7613,6.7659,6.7684,6.7719,6.7697,6.7639,6.7804,6.7719,6.7799,6.78,6.7836,6.7834,6.8082,6.7855,6.7855,6.7854,6.7854,0,6.7419,6.7506,6.7482,6.754,6.7636,6.7606,6.7701,6.7704,6.7722,6.7778,6.773,6.7784,6.7752,6.7803,6.7786,6.7873,6.7885,6.7881,6.7875,6.7885,6.7885,6.7901,6.7889,6.7861,6.7859,6.7858,6.7857,0,6.7613,6.76,6.7699,6.7712,6.7717,6.7787,6.7797,6.785,6.7843,6.7915,6.793,6.7919,6.7976,6.7958,6.8019,6.8007,6.8119,6.8099,6.8111,6.8106,6.8186,6.8179,6.8453,6.8487,6.8239,6.8241,6.8243,0,6.7737,6.7803,6.7823,6.7858,6.7872,6.793,6.7961,6.7934,6.7969,6.8001,6.805,6.8103,6.8144,6.8237,6.8234,6.828,6.826,6.8353,6.8267,6.8274,6.826,6.8257,6.8262,6.837,6.8373,6.8375,6.8377,0,6.7958,6.7948,6.7997,6.8043,6.8083,6.8118,6.8148,6.8179,6.8153,6.8194,6.8253,6.8285,6.8347,6.84,6.8441,6.845,6.841,6.8405,6.8425,6.8436,6.844,6.8438,6.8157,6.8398,6.8396,6.8395,6.8394,6.8393,6.8119,6.8175,6.8198,6.8253,6.8273,6.8302,6.8353,6.8352,6.8401,6.8451,6.8431,6.8498,6.8518,6.857,6.8585,6.8635,6.8599,6.863,6.8637,6.8645,6.8655,6.8432,6.8643,6.8642,6.8642,6.8641,6.8641,0,6.8337,6.8349,6.84,6.8444,6.8487,6.8446,6.8477,6.8516,6.8576,6.8599,6.864,6.8706,6.8757,6.8758,6.8804,6.8845,6.8827,6.8858,6.8854,6.8857,6.8685,6.8662,6.8871,6.8871,6.8871,6.8871,6.8871,6.8871,6.8455,6.8547,6.854,6.8639,6.865,6.8716,6.8737,6.8763,6.8781,6.8858,6.89,6.89,6.8914,6.8961,6.9005,6.9004,6.9023,6.9061,6.9052,6.8892,6.8869,6.8847,6.8825,6.9065,6.9065,6.9219,6.9221,6.9222]}]]